Regional Weather Roundup
Issued by NWS

Home | Current Version | Previous Version | Graphics & Text | Print | Product List | Glossary Off
Versions: 1 2 3 4 5 6 7 8 9 10 11 12 13 14 15 16 17 18 19 20 21 22 23 24 25 26 27 28 29 30 31 32 33 34 35 36 37 38 39 40 41 42 43 44 45 46 47 48 49 50

755
ASUS43 KMKX 290311
RWRWI

WISCONSIN REGIONAL WEATHER ROUNDUP
NATIONAL WEATHER SERVICE MILWAUKEE/SULLIVAN WI
1000 PM CDT TUE MAR 28 2017

NOTE: "FAIR" INDICATES FEW OR NO CLOUDS BELOW 12,000 FEET WITH NO
SIGNIFICANT WEATHER AND/OR OBSTRUCTIONS TO VISIBILITY.

WIZ001-002-006>008-014>016-023>028-290400-
NORTHWEST WISCONSIN

CITY           SKY/WX    TMP DP  RH WIND       PRES   REMARKS
SUPERIOR ARPT  CLEAR     35  33  89 E8        30.26R WCI  29
ASHLAND        CLEAR     34  31  88 N6        30.26R WCI  29
HAYWARD        CLEAR     35  24  64 N5        30.22R WCI  31
SIREN          PTCLDY    38  23  54 CALM      30.21R
CUMBERLAND     CLEAR     41  28  60 CALM      30.20S
RICE LAKE      CLEAR     42  26  52 CALM      30.21S
CHETEK         CLEAR     39  31  72 CALM      30.20S
LADYSMITH      CLEAR     44  28  54 CALM      30.23R
EAU CLAIRE     CLEAR     43  29  57 CALM      30.19R
MENOMONIE      CLEAR     44  34  66 E3        30.20S
NEW RICHMOND   CLEAR     42  31  65 CALM      30.20S
OSCEOLA        CLEAR     40  31  72 CALM      30.22R
$$

WIZ003>005-009-010-017-018-290400-
NORTH CENTRAL WISCONSIN

CITY           SKY/WX    TMP DP  RH WIND       PRES   REMARKS
MANITOWISH WTR PTCLDY    35  27  73 CALM      30.23R
ARBOR VITAE    CLEAR     40  29  65 CALM      30.22R
WOODRUFF       CLEAR     40  29  65 CALM      30.22R
RHINELANDER    CLEAR     44  26  49 NE5       30.23R
EAGLE RIVER    CLEAR     34  26  72 CALM      30.23R
LAND O LAKES   CLEAR     32  27  81 CALM      30.26R
PHILLIPS       CLEAR     44  28  53 E3        30.22R
TOMAHAWK       CLEAR     32  26  77 CALM      30.22R
MEDFORD        CLEAR     39  32  76 CALM      30.21R
MERRILL        CLEAR     34  28  78 CALM      30.22R
$$

WIZ029-030-035-036-043>047-290400-
CENTRAL WISCONSIN

CITY           SKY/WX    TMP DP  RH WIND       PRES   REMARKS
WAUSAU         CLEAR     44  30  57 SE5       30.21R
MOSINEE        CLEAR     45  32  61 SE6       30.23R
MARSHFIELD     CLEAR     45  32  60 SE6       30.20R
STEVENS POINT  CLEAR     40  31  70 CALM      30.23R
WAUPACA        CLEAR     43  30  60 CALM      30.24R
WAUTOMA        CLEAR     38  32  79 CALM      30.25R
WISC RAPIDS    CLEAR     44  32  62 SE7       30.23R
CAMP DOUGLAS   PTCLDY    37  32  81 SE3       30.22R
$$

WIZ011>013-019>022-031-037>040-048>050-290400-
NORTHEAST WISCONSIN

CITY           SKY/WX    TMP DP  RH WIND       PRES   REMARKS
ANTIGO         CLEAR     38  32  78 SE6       30.24R WCI  33
SHAWANO        CLEAR     38  32  79 CALM      30.25R
OCONTO         MOCLDY    32  32  99 CALM      30.26R
STURGEON BAY   CLEAR     30  29  96 CALM      30.23F
GREEN BAY      CLEAR     38  38 100 NW3       30.24R
MANITOWOC      CLEAR     34  33  96 CALM      30.25R
APPLETON       PTCLDY    45  36  70 VRB3      30.22R
CLINTONVILLE   CLEAR     37  32  81 NE3       30.23S
OSHKOSH        CLEAR     42  36  79 NE5       30.23R
$$

WIZ032>034-041-042-053>061-290400-
SOUTHWEST WISCONSIN

CITY           SKY/WX    TMP DP  RH WIND       PRES   REMARKS
LA CROSSE      PTCLDY    46  38  73 CALM      30.19R
SPARTA         CLEAR     38  34  85 E6        30.22R WCI  34
VIROQUA        PTCLDY    48  35  60 CALM      30.20R
BOSCOBEL       CLOUDY    40  37  89 CALM      30.20R FOG
PRAIRIE DU CHI PTCLDY    43  38  82 CALM      30.18F
PLATTEVILLE    CLEAR     43  41  93 N3        30.19S
$$

WIZ056-057-062-063-064-067-068-290400-
SOUTH CENTRAL WISCONSIN

CITY           SKY/WX    TMP DP  RH WIND       PRES   REMARKS
REEDSBURG      CLEAR     46  32  57 E3        30.21R
BARABOO/DELLS  CLEAR     44  31  60 E7        30.21R
LONE ROCK      CLEAR     45  36  70 E5        30.21R
MINERAL POINT  CLEAR     46  37  71 E5        30.19S
MADISON        CLEAR     42  36  79 E5        30.21R
MIDDLETON      CLEAR     47  39  72 E5        30.22R
WATERTOWN      CLEAR     37  37 100 SE5       30.23R WCI  34
MONROE         CLEAR     43  36  75 E7        30.20R
JANESVILLE     CLEAR     39  37  93 E3        30.21R
$$

WIZ051-052-058>065-066-070>072-290400-
SOUTHEAST WISCONSIN

CITY           SKY/WX    TMP DP  RH WIND       PRES   REMARKS
MILWAUKEE      DRZL/FOG  34  33  96 NE7       30.25R VSB 1/2 WCI  28
WAUKESHA       FOG       32  32 100 E6        30.25R VSB 1/2 WCI  26
MILWAUKEE/TIMM FOG       32  32 100 E3        30.26R VSB 3/4
RACINE         FOG       35  33  92 N9        30.26R VSB 1/2 WCI  28
KENOSHA        FOG       35  34  96 NE8       30.24R VSB 1/4 WCI  29
FOND DU LAC    CLEAR     41  34  76 N5        30.23R
SHEBOYGAN      FOG       32  31  96 CALM      30.24R VSB 1/4
WEST BEND      FOG       34  34 100 NE6       30.24R VSB 1/2 WCI  29
JUNEAU         CLEAR     40  35  83 CALM      30.23R
$$

LSZ147-162-290400-
LAKE SUPERIOR

STATION/POSITION TIME  TEMP    WIND        PRES    WAVE
                       AIR SEA DIR/SP/G            HT/PER
                 (UTC) (F)     (DEG/KT/KT) (MB)    (FT/S)
DEVILS ISLAND    0200   36      30/ 12/ 13 1025.1R
PORT WING        0230   36      40/ 13/ 16 1024.4R
SAXON HARBOR     0240   32     190/  2/  3 1023.7R
$$

LMZ867-665-643>646-290400-
LAKE MICHIGAN

STATION/POSITION TIME  TEMP    WIND        PRES    WAVE
                       AIR SEA DIR/SP/G            HT/PER
                 (UTC) (F)     (DEG/KT/KT) (MB)    (FT/S)
CHAMBERS ISLAND  0240   30      CALM  /  2 1024.4R
NORTHPORT PIER   0240   32     300/  3/  5 1024.4R
SISTER BAY       0236   32     330/  3/  4   N/A
KEWAUNEE LAKESHO 0248   31     300/  2/  4 1023.4R
SHEBOYGAN LAKESH 0300   31     360/  4/  5 1024.7R
PORT WASHINGTON  0240   35      20/  4/  7 1025.1R
MILWAUKEE LAKESH 0250   34      30/  5/  6   N/A
KENOSHA   LAKESH 0300   35      30/ 12/ 13 1024.0
$$

TC  - TEMPERATURE IN CELSIUS
VSB - VISIBILITY IN STATUTE MILES
WCI - WIND CHILL INDEX
HX  - HEAT INDEX





USA.gov is the U.S. government's official web portal to all federal, state and local government web resources and services.